Other Public Products
Issued by NWS Grand Forks, ND

Home | Current Version | Previous Version | Text Only | Print | Product List | Glossary Off
Versions: 1 2 3 4 5 6 7 8 9 10 11 12 13 14 15 16 17 18 19 20 21 22 23 24 25 26 27 28 29 30 31 32 33 34 35 36 37 38 39 40 41 42 43 44 45 46 47 48 49 50

000
FPUS83 KFGF 231031
OPUFGF
PRAIRIE TO PINES WEATHER ROUNDUP
NATIONAL WEATHER SERVICE EASTERN NORTH DAKOTA/GRAND FORKS ND
500 AM CDT SAT MAY 23 2015

 **SATELLITE DATA USED TO AUGMENT SKY COVER AT AUTOMATED STATIONS**
 *****  WEATHER ACROSS EASTERN NORTH DAKOTA  *****

CITY           SKY/WX    TMP DP  RH WIND       PRES   REMARKS
GRAND FORKS    CLEAR     48  40  73 SE8       30.13S
GRAND FORKS AF CLEAR     45  39  82 S2        30.13S
GRAND CITY NWS   N/A     46 N/A N/A SE2         N/A
BUXTON           N/A     50  45  85 SE3         N/A
DEVILS LAKE    CLEAR     52  39  62 CALM      30.12S
FARGO          CLEAR     52  45  77 S7        30.16R
WAHPETON ARPT  SUNNY     46  37  71 S6        30.20R
$$

 *****  WEATHER ACROSS CENTRAL AND WESTERN NORTH DAKOTA  *****

CITY           SKY/WX    TMP DP  RH WIND       PRES   REMARKS
JAMESTOWN      PTCLDY    53  43  68 SW10      30.16R
BISMARCK       PTCLDY    43  40  89 SE6       30.16S
MINOT          PTCLDY    55  38  52 SW10      30.10S
MINOT AFB      PTCLDY    55  40  56 W5        30.09S
GARRISON         N/A     46  40  79 CALM      30.13R
WILLISTON      CLEAR     46  38  73 NE5       30.11R
DICKINSON      PTCLDY    40  36  86 E7        30.09R
HETTINGER      CLEAR     41  38  89 E8        30.11R
$$

 *****  OTHER OBSERVATIONS NORTHEAST NORTH DAKOTA  *****

CITY           SKY/WX    TMP DP  RH WIND       PRES   REMARKS
WALHALLA       FAIR      55  34  44 SW5       30.12R
LANGDON        FAIR      43  36  75 S7        30.14S
CAVALIER       FAIR      46  39  76 CALM      30.12R
GRAFTON        FAIR      46  43  87 S6        30.14R
CANDO          FAIR      46  37  71 SW3       30.13S
FORT TOTTEN      N/A     52  34  50 SE2       29.95S
ROLLA          FAIR      48  37  66 SW10      30.13S
RUGBY          NOT AVBL
 ***** THE ABOVE OBSERVATIONS ARE NON NWS ARE NOT QUALITY
        CONTROLLED AND MAY MIS-REPORT RAIN FOR SNOW...
$$

 *****  OTHER OBSERVATIONS SOUTHEAST NORTH DAKOTA *****

CITY           SKY/WX    TMP DP  RH WIND       PRES   REMARKS
COOPERSTOWN    NOT AVBL
VALLEY CITY    FAIR      50  46  87 SW17      30.16S
OAKES            N/A     46  46 100 S8        30.19S
GWINNER        NOT AVBL
SHEYENNE NWR     N/A     49  45  85 W5        29.95S
BUFFALO        NOT AVBL
WYNDMERE         N/A     52  45  76 SW10        N/A
 ***** THE ABOVE OBSERVATIONS ARE NON NWS ARE NOT QUALITY
       CONTROLLED AND MAY MIS-REPORT RAIN FOR SNOW...
$$

  *****  WEATHER ACROSS NORTHERN MINNESOTA  *****

CITY           SKY/WX    TMP DP  RH WIND       PRES   REMARKS
FLAG ISLAND    MOCLDY    61  41  48 W9        30.09R
WARROAD        PTCLDY    54  43  66 SW5       30.13S
ROSEAU         PTCLDY    55  41  58 SW8       30.13S
HALLOCK        CLEAR     46  43  87 SE8       30.12S
THF RVR FALLS  CLEAR     52  37  58 S7        30.16S
HALSTAD          N/A     45  39  80 S9          N/A
FOSSTON        CLEAR     48  37  66 S5        30.18S
BAUDETTE       PTCLDY    51  39  63 SW7       30.12S
WASKISH        CLEAR     46  43  87 CALM      30.16S
CROOKSTON      CLEAR     46  39  76 SE8       30.16S
$$
  *****  WEATHER ACROSS CENTRAL AND WEST MINNESOTA  *****

CITY           SKY/WX    TMP DP  RH WIND       PRES   REMARKS
BEMIDJI        CLEAR     50  40  69 SW3       30.18S
PARK RAPIDS    CLEAR     48  39  71 CALM      30.19S
WADENA         CLEAR     48  39  71 SW6       30.20R
DETROIT LAKES  CLEAR     50  45  81 S3        30.20R
MOORHEAD       CLEAR     50  45  81 S8        30.18R
FERGUS FALLS   CLEAR     52  43  71 CALM      30.22R
ELBOW LAKE     FAIR      51  45  79 S3        30.21R
MORRIS MN      CLEAR     46  45  93 S5        30.21R
STAPLES        CLEAR     39  37  93 CALM      30.21R
WHEATON        CLEAR     46  39  76 SW3       30.23R
$$
  *****  WEATHER ELSEWHERE ACROSS MINNESOTA  *****

CITY           SKY/WX    TMP DP  RH WIND       PRES   REMARKS
DULUTH         CLEAR     55  35  47 W8        30.20S
INTRNTL FALLS  CLEAR     46  37  71 SW6       30.14R
ELY            CLEAR     50  36  57 SW5       30.17R
CLOQUET        CLEAR     54  34  47 SW7       30.21S
BRAINERD       CLEAR     41  39  93 CALM      30.21S
HIBBING        CLEAR     36  33  89 S3        30.18S
ALEXANDRIA     CLEAR     48  42  80 SW5       30.22S
SAINT CLOUD    CLEAR     43  42  97 CALM      30.21S
MINNEAPOLIS    MOCLDY    52  41  66 CALM      30.22S
$$

  *****  WEATHER ACROSS SOUTH DAKOTA  *****

CITY           SKY/WX    TMP DP  RH WIND       PRES   REMARKS
SIOUX FALLS    CLOUDY    57  45  64 SE8       30.19S
BROOKINGS      CLOUDY    52  46  82 E5        30.22S
WATERTOWN      MOCLDY    50  43  77 CALM      30.20F
HURON          CLOUDY    51  47  86 SE5       30.19S
SISSETON         N/A     53  40  61 N3        30.19R
ABERDEEN       PTCLDY    43  40  89 SE6       30.19S
MITCHELL       CLOUDY    53  49  86 E7        30.18F
PIERRE         CLOUDY    49  44  83 E3        30.13R
MOBRIDGE       CLEAR     45  42  89 E9        30.13R
RAPID CITY     CLOUDY    48  44  86 S9        30.06S
$$

  *****  SOME WEATHER IN NEARBY STATES *****

CITY           SKY/WX    TMP DP  RH WIND       PRES   REMARKS
GLASGOW MT     MOCLDY    55  42  61 E12       30.03S
GREAT FALLS MT PTCLDY    50  43  77 E8        30.00R
CHEYENNE WY    CLOUDY    44  43  96 S6        30.04F FOG
SCOTTSBLUFF NE CLOUDY    46  45  96 E8        30.04F FOG
OMAHA NE       CLOUDY    59  50  72 S5        30.20R
DES MOINES IA  CLOUDY    58  48  69 SE6       30.24S
DAVENPORT IA   PTCLDY    58  42  55 SE10      30.27R
CHICAGO IL     PTCLDY    50  37  61 S3        30.30R
EAU CLAIRE WI  CLEAR     41  39  93 CALM      30.24R
LA CROSSE WI   CLEAR     49  43  80 SE8       30.25R
$$

  *****  SOME NATIONAL WEATHER *****

CITY           SKY/WX    TMP DP  RH WIND       PRES   REMARKS
LA GUARDIA NY  CLEAR     50  29  44 NW16G23   30.32R
RALEIGH NC     PTCLDY    49  47  93 CALM      30.35R
ATLANTA GA     CLEAR     61  52  72 E5        30.30R
NEW ORLEANS LA PTCLDY    72  67  84 CALM      30.16R
OKLAHOMA CITY  CLOUDY    59  58  96 SE10      30.11S FOG
ALBUQUERQUE NM PTCLDY    52  30  43 E3        30.01R
SALT LAKE CITY LGT RAIN  50  48  93 SE7       29.92S
LOS ANGELES CA PTCLDY    58  53  84 W7        30.06S
BOISE ID       MOCLDY    55  50  83 N5        29.89R
SEATTLE WA     CLOUDY    54  49  83 S6        30.11R
$$

*** WEATHER ACROSS MANITOBA...SASKATCHEWAN AND ONTARIO ***
                ***ONTARIO***

CITY           SKY/WX    TMP DP  RH WIND       PRES   REMARKS
GERALDTON      PTCLDY    43  25  49 S7        29.98F
THUNDER BAY    PTCLDY    34  30  86 NW5       30.08F
SIOUX LOOKOUT  PTCLDY    59  39  47 W6        30.04R
TORONTO        CLEAR     36  27  69 W5        30.37R
BIG TROUT LK   LGT RAIN  43  39  87 N13G20    29.93R
PICKLE LAKE    NOT AVBL
DRYDEN         CLOUDY    59  39  47 W12       30.06S
KENORA         PTCLDY    55  39  54 SW7       30.09S
$$
                *** MANITOBA***

CITY           SKY/WX    TMP DP  RH WIND       PRES   REMARKS
BRANDON        PTCLDY    45  36  70 NW5       30.11R
DAUPHIN        CLEAR     57  34  41 SW6       30.04S
ISLAND LAKE    PTCLDY    46  39  76 N6        30.02R
PILOT MOUND      N/A     41  36  81 S6          N/A
THE PAS        PTCLDY    46  37  71 CALM      29.97R
THOMPSON       MOCLDY    37  34  87 NE13      30.12R
WINNIPEG       PTCLDY    61  34  36 SW12      30.09R
LYNN LAKE      CLEAR     36  32  87 NE9       30.18R
CHURCHILL      PTCLDY    30  27  86 N12       30.16S WCI  21
$$
                ***SASKATCHEWAN***

CITY           SKY/WX    TMP DP  RH WIND       PRES   REMARKS
ESTEVAN        MOCLDY    54  41  62 S6        30.11S
KINDERSLEY     PTCLDY    48  28  46 SW3       30.08R
LLOYDMINSTER   CLEAR     54  27  35 S8        30.06R
PRINCE ALBERT  MOCLDY    45  39  81 VRB2      30.04R
REGINA         PTCLDY    48  37  66 E9        30.10R
YORKTON        CLEAR     46  39  76 VRB2      30.08R


USA.gov is the U.S. government's official web portal to all federal, state and local government web resources and services.